[TLELIST] Archives

 

[list_settings.list_name] Current TLEs

August 25th 2010 PST

HST 1 20580U 90037B 10237.06559608 .00000414 00000-0 18802-4 0 6333 2 20580 028.4678 150.1867 0003683 210.6341 149.4005 15.01021395915114 ISS (ZARYA) 1 25544U 98067A 10237.50776661 .00009206 00000-0 75730-4 0 7677 2 25544 051.6451 235.8956 0007705 291.5133 211.7956 15.71233161674373 CXO 1 25867U 99040B 10237.83333333 -.00000251 00000-0 10000-3 0 5069 2 25867 067.5017 049.9467 8268393 275.4120 001.0704 00.37806964 6657 ____________________________________________________________________ These 2-Line ...Continue Reading

[list_settings.list_name] Current TLEs

August 24th 2010 PST

HST 1 20580U 90037B 10236.06823936 .00000378 00000-0 16038-4 0 6327 2 20580 028.4675 156.6932 0003745 200.6174 159.4256 15.01020704914961 ISS (ZARYA) 1 25544U 98067A 10236.36277919 .00008535 00000-0 70633-4 0 7594 2 25544 051.6448 241.7497 0007753 286.6760 215.7657 15.71207991674193 CXO 1 25867U 99040B 10235.16666667 -.00000384 00000-0 10000-3 0 5058 2 25867 067.4870 050.0635 8265524 275.4003 358.0927 00.37804202 6640 ____________________________________________________________________ These 2-Line ...Continue Reading

[list_settings.list_name] Current TLEs

August 23rd 2010 PST

HST 1 20580U 90037B 10234.07352707 .00000536 00000-0 28190-4 0 6316 2 20580 028.4679 169.7267 0003682 180.8207 179.2375 15.01020744914660 ISS (ZARYA) 1 25544U 98067A 10235.33437345 .00008664 00000-0 71677-4 0 7537 2 25544 051.6453 247.0084 0007708 282.1501 159.3961 15.71189938674038 CXO 1 25867U 99040B 10235.16666667 -.00000384 00000-0 10000-3 0 5058 2 25867 067.4870 050.0635 8265524 275.4003 358.0927 00.37804202 6640 ____________________________________________________________________ These 2-Line ...Continue Reading

[list_settings.list_name] Current TLEs

August 22nd 2010 PST

HST 1 20580U 90037B 10234.07352707 .00000536 00000-0 28190-4 0 6316 2 20580 028.4679 169.7267 0003682 180.8207 179.2375 15.01020744914660 ISS (ZARYA) 1 25544U 98067A 10234.51727728 .00008751 00000-0 72397-4 0 7473 2 25544 051.6456 251.1874 0007724 279.0451 217.6875 15.71175164673904 CXO 1 25867U 99040B 10235.16666667 -.00000384 00000-0 10000-3 0 5058 2 25867 067.4870 050.0635 8265524 275.4003 358.0927 00.37804202 6640 ____________________________________________________________________ These 2-Line ...Continue Reading

[list_settings.list_name] Current TLEs

August 21st 2010 PST

HST 1 20580U 90037B 10232.27828610 .00000536 00000-0 28190-4 0 6306 2 20580 028.4679 181.4439 0003682 161.7340 198.3475 15.01019415914394 ISS (ZARYA) 1 25544U 98067A 10233.50273037 .00008172 00000-0 67982-4 0 7415 2 25544 051.6454 256.3751 0007774 274.9697 239.4244 15.71154531673743 CXO 1 25867U 99040B 10232.54166667 -.00000580 00000-0 10000-3 0 5049 2 25867 067.4734 050.1685 8263024 275.3919 000.7791 00.37804443 6639 ____________________________________________________________________ These 2-Line ...Continue Reading

[list_settings.list_name] Current TLEs

August 20th 2010 PST

HST 1 20580U 90037B 10232.27828610 .00000536 00000-0 28190-4 0 6306 2 20580 028.4679 181.4439 0003682 161.7340 198.3475 15.01019415914394 ISS (ZARYA) 1 25544U 98067A 10232.35127753 .00082956 00000-0 64090-3 0 7340 2 25544 051.6445 262.2657 0008073 271.6854 205.5687 15.71152676673569 CXO 1 25867U 99040B 10232.54166667 -.00000580 00000-0 10000-3 0 5049 2 25867 067.4734 050.1685 8263024 275.3919 000.7791 00.37804443 6639 ____________________________________________________________________ These 2-Line ...Continue Reading

[list_settings.list_name] Current TLEs

August 19th 2010 PST

HST 1 20580U 90037B 10230.21707886 .00000508 00000-0 25988-4 0 6298 2 20580 028.4680 194.9063 0003678 141.1071 218.9781 15.01017702914088 ISS (ZARYA) 1 25544U 98067A 10231.39033991 .00012954 00000-0 10510-3 0 7331 2 25544 051.6446 267.1745 0007992 265.8609 172.6258 15.71112481673416 CXO 1 25867U 99040B 10229.87500000 -.00000713 00000-0 10000-3 0 5031 2 25867 067.4467 050.3194 8259461 275.3697 357.8043 00.37807776 6629 ____________________________________________________________________ These 2-Line ...Continue Reading

[list_settings.list_name] Current TLEs

August 18th 2010 PST

HST 1 20580U 90037B 10230.21707886 .00000508 00000-0 25988-4 0 6298 2 20580 028.4680 194.9063 0003678 141.1071 218.9781 15.01017702914088 ISS (ZARYA) 1 25544U 98067A 10230.51022750 .00013030 00000-0 10238-3 0 7282 2 25544 051.6464 271.6743 0005786 241.0597 255.1714 15.71891941673278 CXO 1 25867U 99040B 10229.87500000 -.00000713 00000-0 10000-3 0 5031 2 25867 067.4467 050.3194 8259461 275.3697 357.8043 00.37807776 6629 ____________________________________________________________________ These 2-Line ...Continue Reading

[list_settings.list_name] Current TLEs

August 17th 2010 PST

HST 1 20580U 90037B 10229.15322882 .00000473 00000-0 23331-4 0 6288 2 20580 028.4680 201.8498 0003606 131.6071 228.4830 15.01016711913925 ISS (ZARYA) 1 25544U 98067A 10229.35787613 .00011106 00000-0 88102-4 0 7219 2 25544 051.6463 277.5734 0006018 235.6964 215.2583 15.71853483673098 CXO 1 25867U 99040B 10229.87500000 -.00000713 00000-0 10000-3 0 5031 2 25867 067.4467 050.3194 8259461 275.3697 357.8043 00.37807776 6629 ____________________________________________________________________ These 2-Line ...Continue Reading

[list_settings.list_name] Current TLEs

August 16th 2010 PST

HST 1 20580U 90037B 10228.15586894 .00000475 00000-0 23527-4 0 6270 2 20580 028.4684 208.3608 0003648 121.5679 238.5274 15.01016187913776 ISS (ZARYA) 1 25544U 98067A 10228.46697922 .00010665 00000-0 84876-4 0 7160 2 25544 051.6461 282.1328 0006069 231.0764 215.2186 15.71830283672957 CXO 1 25867U 99040B 10227.25000000 -.00000617 00000-0 10000-3 0 5028 2 25867 067.4341 050.4513 8252640 275.3559 000.4937 00.37806683 6613 ____________________________________________________________________ These 2-Line ...Continue Reading
  • This mailing list is a public mailing list - anyone may join or leave, at any time.
  • This mailing list is announce-only.

International Space Station (ISS) / Hubble Space Telescope (HST) / Chandra X-Ray Observatory Orbital Data via EMAIL

Privacy Policy:

Private list